Time,TemperatureF,DewpointF,PressureIn,WindDirection,WindDirectionDegrees,WindSpeedMPH,WindSpeedGustMPH,Humidity,HourlyPrecipIn,Conditions,Clouds,dailyrainin,SoftwareType,DateUTC
2013-10-30 00:13:00,25.0,22.0,30.34,SSW,205,0.0,0.0,88,0.00,,,0.00,,2013-10-30 04:13:00,
2013-10-30 00:44:00,25.0,22.0,30.32,SSW,205,0.0,0.0,89,0.00,,,0.00,,2013-10-30 04:44:00,
2013-10-30 00:54:00,25.0,22.0,30.32,SSW,205,0.0,0.0,89,0.00,,,0.00,,2013-10-30 04:54:00,
2013-10-30 01:22:00,24.0,21.0,30.31,SSW,205,0.0,0.0,89,0.00,,,0.00,,2013-10-30 05:22:00,
2013-10-30 01:53:00,24.0,22.0,30.31,SSW,205,0.0,0.0,90,0.00,,,0.00,,2013-10-30 05:53:00,
2013-10-30 02:13:00,24.0,22.0,30.30,SSW,205,0.0,0.0,90,0.00,,,0.00,,2013-10-30 06:13:00,
2013-10-30 02:22:00,24.0,22.0,30.30,SSW,205,0.0,0.0,90,0.00,,,0.00,,2013-10-30 06:22:00,
2013-10-30 02:42:00,25.0,22.0,30.29,SSW,205,0.0,0.0,90,0.00,,,0.00,,2013-10-30 06:42:00,
2013-10-30 02:53:00,25.0,23.0,30.29,SSW,205,0.0,0.0,91,0.00,,,0.00,,2013-10-30 06:53:00,
2013-10-30 03:12:00,25.0,23.0,30.29,SSW,205,0.0,0.0,91,0.00,,,0.00,,2013-10-30 07:12:00,
2013-10-30 03:22:00,25.0,23.0,30.28,SSW,205,0.0,0.0,91,0.00,,,0.00,,2013-10-30 07:22:00,
2013-10-30 03:42:00,25.0,22.0,30.27,SSW,205,0.0,0.0,90,0.00,,,0.00,,2013-10-30 07:42:00,
2013-10-30 03:52:00,25.0,23.0,30.27,SSW,205,0.0,0.0,91,0.00,,,0.00,,2013-10-30 07:52:00,
2013-10-30 04:12:00,26.0,23.0,30.26,SSW,205,0.0,0.0,90,0.00,,,0.00,,2013-10-30 08:12:00,
2013-10-30 04:22:00,26.0,23.0,30.26,SSW,205,0.0,0.0,90,0.00,,,0.00,,2013-10-30 08:22:00,
2013-10-30 04:42:00,25.0,22.0,30.25,SSW,205,0.0,0.0,90,0.00,,,0.00,,2013-10-30 08:42:00,
2013-10-30 04:52:00,25.0,22.0,30.26,SSW,205,0.0,0.0,90,0.00,,,0.00,,2013-10-30 08:52:00,
2013-10-30 09:11:00,30.0,28.0,30.27,SSW,205,0.0,-999.0,91,-99.99,,,-99.99,,2013-10-30 13:11:00,
2013-10-30 09:22:00,31.0,29.0,30.26,SSW,205,1.0,-999.0,92,-99.99,,,-99.99,,2013-10-30 13:22:00,
2013-10-30 09:52:00,33.0,31.0,30.27,SSW,205,0.0,-999.0,93,-99.99,,,-99.99,,2013-10-30 13:52:00,
2013-10-30 10:11:00,33.0,31.0,30.27,SSW,202,2.0,-999.0,93,-99.99,,,-99.99,,2013-10-30 14:11:00,
2013-10-30 10:21:00,34.0,32.0,30.26,SSW,202,1.0,-999.0,93,-99.99,,,-99.99,,2013-10-30 14:21:00,
2013-10-30 10:42:00,34.0,32.0,30.25,South,171,2.0,-999.0,93,-99.99,,,-99.99,,2013-10-30 14:42:00,
2013-10-30 10:52:00,35.0,33.0,30.24,South,185,3.0,-999.0,91,-99.99,,,-99.99,,2013-10-30 14:52:00,
2013-10-30 11:11:00,36.0,33.0,30.24,South,169,3.0,-999.0,90,-99.99,,,-99.99,,2013-10-30 15:11:00,
2013-10-30 11:22:00,37.0,34.0,30.24,South,178,2.0,-999.0,87,-99.99,,,-99.99,,2013-10-30 15:22:00,
2013-10-30 11:43:00,39.0,34.0,30.24,South,191,3.0,-999.0,81,-99.99,,,-99.99,,2013-10-30 15:43:00,
2013-10-30 11:54:00,40.0,34.0,30.24,SSW,202,0.0,-999.0,78,-99.99,,,-99.99,,2013-10-30 15:54:00,
2013-10-30 12:12:00,40.0,33.0,30.24,West,270,2.0,-999.0,77,-99.99,,,-99.99,,2013-10-30 16:12:00,
2013-10-30 12:23:00,39.0,32.0,30.23,WSW,241,1.0,-999.0,77,-99.99,,,-99.99,,2013-10-30 16:23:00,
2013-10-30 12:43:00,39.0,32.0,30.22,South,188,2.0,-999.0,77,-99.99,,,-99.99,,2013-10-30 16:43:00,
2013-10-30 12:53:00,39.0,32.0,30.22,WSW,254,1.0,-999.0,77,-99.99,,,-99.99,,2013-10-30 16:53:00,
2013-10-30 13:23:00,40.0,33.0,30.21,West,280,1.0,-999.0,75,-99.99,,,-99.99,,2013-10-30 17:23:00,
2013-10-30 13:42:00,41.0,33.0,30.21,West,280,1.0,-999.0,74,-99.99,,,-99.99,,2013-10-30 17:42:00,
2013-10-30 13:52:00,41.0,33.0,30.20,West,280,0.0,-999.0,72,-99.99,,,-99.99,,2013-10-30 17:52:00,
2013-10-30 14:12:00,41.0,33.0,30.19,West,279,1.0,-999.0,72,-99.99,,,-99.99,,2013-10-30 18:12:00,
2013-10-30 14:22:00,41.0,33.0,30.19,SW,218,1.0,-999.0,72,-99.99,,,-99.99,,2013-10-30 18:22:00,
2013-10-30 14:42:00,41.0,33.0,30.19,South,184,2.0,-999.0,72,-99.99,,,-99.99,,2013-10-30 18:42:00,
2013-10-30 14:52:00,41.0,33.0,30.18,South,184,1.0,-999.0,73,-99.99,,,-99.99,,2013-10-30 18:52:00,
2013-10-30 15:11:00,41.0,33.0,30.18,South,184,0.0,-999.0,73,-99.99,,,-99.99,,2013-10-30 19:11:00,
2013-10-30 15:22:00,42.0,34.0,30.18,South,172,1.0,-999.0,73,-99.99,,,-99.99,,2013-10-30 19:22:00,
2013-10-30 15:52:00,42.0,34.0,30.18,South,186,0.0,-999.0,72,-99.99,,,-99.99,,2013-10-30 19:52:00,
2013-10-30 16:12:00,42.0,33.0,30.18,South,188,2.0,-999.0,71,-99.99,,,-99.99,,2013-10-30 20:12:00,
2013-10-30 16:22:00,42.0,33.0,30.18,WSW,244,1.0,-999.0,71,-99.99,,,-99.99,,2013-10-30 20:22:00,
2013-10-30 16:52:00,43.0,34.0,30.17,SSE,148,1.0,-999.0,71,-99.99,,,-99.99,,2013-10-30 20:52:00,
2013-10-30 17:22:00,42.0,35.0,30.17,SSE,148,0.0,-999.0,75,-99.99,,,-99.99,,2013-10-30 21:22:00,
2013-10-30 17:53:00,39.0,34.0,30.17,SSE,148,0.0,-999.0,81,-99.99,,,-99.99,,2013-10-30 21:53:00,
2013-10-30 18:13:00,38.0,33.0,30.17,SSE,148,0.0,-999.0,82,-99.99,,,-99.99,,2013-10-30 22:13:00,
2013-10-30 18:23:00,37.0,32.0,30.18,SSE,148,0.0,-999.0,83,-99.99,,,-99.99,,2013-10-30 22:23:00,
2013-10-30 18:43:00,36.0,32.0,30.19,SSE,148,0.0,-999.0,85,-99.99,,,-99.99,,2013-10-30 22:43:00,
2013-10-30 18:54:00,35.0,31.0,30.19,SSE,148,0.0,-999.0,86,-99.99,,,-99.99,,2013-10-30 22:54:00,
2013-10-30 19:12:00,34.0,31.0,30.19,SSE,148,0.0,-999.0,87,-99.99,,,-99.99,,2013-10-30 23:12:00,
2013-10-30 19:23:00,34.0,31.0,30.19,SSE,148,0.0,-999.0,88,-99.99,,,-99.99,,2013-10-30 23:23:00,
2013-10-30 19:53:00,34.0,31.0,30.20,SSE,148,0.0,-999.0,89,-99.99,,,-99.99,,2013-10-30 23:53:00,
2013-10-30 20:11:00,34.0,31.0,30.20,SSE,148,0.0,-999.0,90,-99.99,,,-99.99,,2013-10-31 00:11:00,
2013-10-30 20:22:00,34.0,32.0,30.20,SSE,148,0.0,-999.0,91,-99.99,,,-99.99,,2013-10-31 00:22:00,
2013-10-30 20:52:00,34.0,32.0,30.21,SSE,148,0.0,-999.0,91,-99.99,,,-99.99,,2013-10-31 00:52:00,
2013-10-30 21:12:00,33.0,31.0,30.20,SSE,148,0.0,-999.0,91,-99.99,,,-99.99,,2013-10-31 01:12:00,
2013-10-30 21:22:00,33.0,31.0,30.19,SSE,148,0.0,-999.0,91,-99.99,,,-99.99,,2013-10-31 01:22:00,
2013-10-30 21:42:00,32.0,30.0,30.19,SSE,148,0.0,-999.0,91,-99.99,,,-99.99,,2013-10-31 01:42:00,
2013-10-30 21:52:00,32.0,30.0,30.20,SSE,148,0.0,-999.0,91,-99.99,,,-99.99,,2013-10-31 01:52:00,
2013-10-30 22:12:00,32.0,30.0,30.20,SSE,148,0.0,-999.0,91,-99.99,,,-99.99,,2013-10-31 02:12:00,
2013-10-30 22:22:00,32.0,30.0,30.20,SSE,148,0.0,-999.0,92,-99.99,,,-99.99,,2013-10-31 02:22:00,
2013-10-30 23:12:00,31.0,29.0,30.21,SSE,148,0.0,-999.0,92,-99.99,,,-99.99,,2013-10-31 03:12:00,
2013-10-30 23:22:00,31.0,29.0,30.21,SSE,148,0.0,-999.0,93,-99.99,,,-99.99,,2013-10-31 03:22:00,
2013-10-30 23:44:00,31.0,29.0,30.21,SSE,148,0.0,-999.0,93,-99.99,,,-99.99,,2013-10-31 03:44:00,
2013-10-30 23:55:00,31.0,29.0,30.21,SSE,148,0.0,-999.0,93,-99.99,,,-99.99,,2013-10-31 03:55:00,